Regional Weather Roundup
Issued by NWS

Home | Current Version | Previous Version | Graphics & Text | Print | Product List | Glossary On
Versions: 1 2 3 4 5 6 7 8 9 10 11 12 13 14 15 16 17 18 19 20 21 22 23 24 25 26 27
000
ASUS45 KSLC 201910
RWRUT

UTAH REGIONAL WEATHER ROUNDUP
NATIONAL WEATHER SERVICE SALT LAKE CITY UT
1200 PM MST MON FEB 20 2017

UTZ001>011-023>025-202000-

NORTHERN UTAH

CITY           SKY/WX    TMP DP  RH WIND       PRES   REMARKS
BRIGHAM CITY     N/A     50  36  58 S15       30.05S
HILL AFB       CLOUDY    50  33  50 S23       30.04S
LOGAN          CLOUDY    50  35  56 S9        30.03R
OGDEN          CLOUDY    52  34  50 S18G30    30.03F
SALT LAKE CITY PTSUNNY   53  34  48 S32G41    30.02F
TOOELE VALLEY  PTSUNNY   54  36  50 S23G38    30.01F
WENDOVER       MOSUNNY   54  37  54 SE17      29.98R
HEBER CITY     CLOUDY    48  30  49 S9G16     30.10F
WEST JORDAN    PTSUNNY   54  43  65 SE25G35   30.06F

$$

UTZ011>015-024>027-202000-

CENTRAL/NORTHEAST UTAH

CITY           SKY/WX    TMP DP  RH WIND       PRES   REMARKS
PROVO AIRPORT  PTSUNNY   52  33  48 E8        30.11F
MOAB/CANYONLAN PTSUNNY   50  42  74 VRB3      30.20S
DELTA          CLOUDY    50  36  57 SW25G32   30.10F
PRICE          CLOUDY    38  36  92 CALM      30.20F
ROOSEVELT      CLOUDY    41  36  81 E7        30.21F
VERNAL         CLOUDY    38  34  85 CALM      30.19S

$$

UTZ013>016-019>022-027-202000-

SOUTHERN UTAH

CITY           SKY/WX    TMP DP  RH WIND       PRES   REMARKS
BRYCE CANYON   CLOUDY    34  30  85 SE13      30.25R WCI  25
CEDAR CITY     MOSUNNY   49  37  63 SW25G32   30.18R
MILFORD        CLOUDY    52  40  63 SW24      30.14F
ST GEORGE      CLOUDY    53  46  77 CALM      30.23F
HANKSVILLE     CLOUDY    41  39  93 CALM      30.25S
BLANDING       PTSUNNY   46  36  68 SE7       30.34F

$$

REGIONAL REPORTS     COLORADO/ARIZONA

CITY           SKY/WX    TMP DP  RH WIND       PRES   REMARKS
CRAIG, CO      MOSUNNY   38  31  76 NE7       30.18R WCI  33
GRAND JUNCTION MOSUNNY   51  37  58 S12       30.20F
RIFLE, CO      CLOUDY    48  33  56 VRB3      30.21F
MONTROSE, CO   SUNNY     49  32  52 W5        30.24F
CORTEZ, CO     CLOUDY    45  35  68 NW8       30.28R
COLORADO CITY  CLOUDY    50  41  71 S8        30.28F
PAGE, AZ       CLOUDY    50  35  56 CALM      30.24F
GRAND CANYON   CLOUDY    41  37  86 SW10      30.31R
KINGMAN, AZ    CLOUDY    53  38  56 MISG      30.28R
FLAGSTAFF, AZ  CLOUDY    42  33  70 VRB6      30.31S

$$

REGIONAL REPORTS    NEVADA/IDAHO/WYOMING

CITY           SKY/WX    TMP DP  RH WIND       PRES   REMARKS
LAS VEGAS, NV  CLOUDY    62  44  51 S13G20    30.16S
ELY, NY        CLOUDY    45  36  70 S32G40    30.07R
ELKO, NV       CLOUDY    47  36  65 S18G29    29.96R
POCATELLO, ID  LGT RAIN  44  36  73 S26G39    29.95R
BURLEY, ID     CLOUDY    50  34  54 SW17      29.89R
FORT BRIDGER,    N/A     44  28  53 SW8       30.07F
EVANSTON, WY   CLOUDY    39  28  64 SW24      30.05S WCI  28
ROCK SPRINGS,  SUNNY     41  28  60 S5        30.06S
KEMMERER, WY     N/A     41  28  60 S7        30.06S

$$




USA.gov is the U.S. government's official web portal to all federal, state and local government web resources and services.